STARLINK-30204 (57472 NORAD) Tracking and Keplerian Element Data

This shows tracking and keplerian element data for the satellite.

Feedback or suggestion? Click here.




ElementValue
Catalog57472
NameSTARLINK-30204
Epoch Orbit2646
Epoch Day13.17235713
Epoch Year2024
RAAN292.4311
Inclination43.003
Eccentricity7.6E-05
Argument of Perigee255.8748
Mean Anonmoly104.201
Mean Motion15.02544839
Decay Rate3.861E-05
L11 57472U 23107R 24013.17235713 .00003861 00000+0 30069-3 0 9995
L22 57472 43.0030 292.4311 0000760 255.8748 104.2010 15.02544839 26468



Live tracking and technical data element details for STARLINK-30204 (NORAD 57472). STARLINK-30204 can be tracked NOW for your location showing map with azimuth and elevation plus other details from your city location.







IsCatalogInMostPopularTable: catalog: 57472, numindb: 8
Update: records affected: 1



GetName: 57472 STARLINK-30204

Hit Count: updated at: Thu, 22 Feb 2024 01:56:34 GMT